Miscellaneous Local Product
Issued by NWS North Platte, NE

Home | Current Version | Previous Version | Graphics & Text | Print | Product List | Glossary On
Versions: 1 2 3 4 5 6 7 8 9 10 11 12 13 14 15 16 17 18 19 20 21 22 23 24 25 26 27 28 29 30 31 32 33 34 35 36 37 38 39 40 41 42 43 44 45 46 47 48 49 50
000
AXUS43 KLBF 152310
MISLBF


WESTERN AND NORTH CENTRAL NEBRASKA HOURLY WEATHER ROUNDUP
NATIONAL WEATHER SERVICE NORTH PLATTE NE
600 PM CDT MON SEP 15 2014

***STATIONS NOT REPORTING VARIABLES SUCH AS SKY/WEATHER OR
PRESSURE ARE PROVIDED BY THE NEBRASKA DEPARTMENT OF
ROADS...RAWS...AND APRS NETWORKS...AND ARE NOT UNDER
NATIONAL WEATHER SERVICE QUALITY CONTROL***

...OBSERVATIONS IN AND NEAR THE EASTERN PANHANDLE OF NEBRASKA...

CITY           SKY/WX    TMP DP  RH WIND       PRES   REMARKS
PINE RIDGE     SUNNY     69  42  37 S12       30.18F
CHADRON        SUNNY     71  43  36 S14       30.16F
ALLIANCE       SUNNY     66  43  43 S16       30.22F
SIDNEY         SUNNY     67  43  41 S16       30.25F
WHITECLAY        N/A     68  42  38 S14         N/A
RUSHVILLE        N/A     68  30  24 S20         N/A
CRESCENT LAKE    N/A     66  42  41 S7          N/A
LISCO            N/A     71  39  32 E10         N/A
BIG SPRINGS      N/A     68  46  45 SW3         N/A
$$

...OBSERVATIONS IN NORTH CENTRAL NEBRASKA...

CITY           SKY/WX    TMP DP  RH WIND       PRES   REMARKS
VALENTINE      SUNNY     66  35  31 SE9       30.23F
THEDFORD       SUNNY     66  39  36 SE5       30.25F
AINSWORTH      SUNNY     62  36  38 CALM      30.25S
O`NEILL        SUNNY     62  41  45 CALM      30.25F
ORD            SUNNY     65  38  36 CALM      30.24S
BROKEN BOW     SUNNY     66  39  37 CALM      30.25S
SPRINGVIEW       N/A     67  39  35 CALM        N/A
ROSE             N/A     67  42  39 N3          N/A
NEWPORT          N/A     63  39  41 E5          N/A
COMSTOCK         N/A     70  43  37 E3          N/A
CHAMBERS         N/A     61  37  41 N3          N/A
$$

...OBSERVATIONS IN SOUTHWEST NEBRASKA AND FAR NORTHEAST COLORADO...

CITY           SKY/WX    TMP DP  RH WIND       PRES   REMARKS
WRAY           FAIR      69  44  41 E7        30.26F
HOLYOKE        FAIR      68  43  40 SE8       30.25F
IMPERIAL       SUNNY     67  41  38 SE6       30.25F
OGALLALA       SUNNY     69  44  40 S8        30.24F
NORTH PLATTE   SUNNY     66  42  41 VRB6      30.25F
MCCOOK         SUNNY     68  42  38 E6        30.25F
LEXINGTON      SUNNY     64  45  49 E7        30.26S
PAXTON           N/A     67  46  46 CALM        N/A
SUTHERLAND       N/A     66  32  28 CALM        N/A
BRADY            N/A     67  44  43 CALM        N/A
GOTHENBURG       N/A     67  37  33 CALM        N/A
CALLAWAY         N/A     68  46  44 SE7         N/A
$$

...SOME WEATHER OBSERVATIONS FROM AROUND THE REGION...

CITY           SKY/WX    TMP DP  RH WIND       PRES   REMARKS
DENVER         MOSUNNY   73  51  46 E10       30.25F
LARAMIE        PTSUNNY   69  39  33 S12       30.29S
CHEYENNE       SUNNY     67  39  35 S17       30.27F
SCOTTSBLUFF    SUNNY     72  45  37 SE17      30.19F
RAPID CITY     SUNNY     68  43  40 S20       30.15F
PIERRE         SUNNY     65  35  33 SE5       30.19F
WINNER         FAIR      65  35  33 VRB3      30.23F
SIOUX FALLS    MOSUNNY   62  40  44 W3        30.23S
OMAHA          PTSUNNY   62  45  53 N6        30.24S
GRAND ISLAND   SUNNY     64  42  44 E8        30.26R
KANSAS CITY    CLOUDY    64  56  75 N15       30.18R
WICHITA        MOSUNNY   74  61  63 N17       30.14R
HAYS           SUNNY     70  52  52 NE10      30.23R
LIBERAL        CLOUDY    64  55  72 NE14      30.24R
GOODLAND       SUNNY     67  49  52 E6        30.27F
$$



USA.gov is the U.S. government's official web portal to all federal, state and local government web resources and services.